648  
ASUS42 KCAE 211310  
RWRCAE  
REGIONAL WEATHER ROUNDUP  
NATIONAL WEATHER SERVICE COLUMBIA SC  
900 AM EDT SAT OCT 21 2017  
 
NOTE: "FAIR" INDICATES FEW OR NO CLOUDS BELOW 12,000 FEET WITH NO  
SIGNIFICANT WEATHER AND/OR S TO VISIBILITY
.  
 
NOT ALL STATIONS ARE QUALITY CONTROLLED BY THE NATIONAL  
WEATHER SERVICE. USE DATA WITH CAUTION...ESPECIALLY  
DEWPOINT OBSERVATIONS.  
 
SCZ001>056-GAZ040-063>065-077-211400-   
..UPSTATE SOUTH CAROLINA
 
 
 
CITY SKY/WX TMP DP RH WIND PRES REMARKS
 
ANDERSON MOSUNNY 55 52 89 CALM 30.32R  
LIBERTY CLOUDY 49 49 99 CALM 30.31R  
SPARTANBURG SUNNY 54 46 76 CALM 30.32R  
CLEMSON MOSUNNY 56 55 97 CALM 30.33R  
GREENVILLE CLOUDY 63 49 60 N5 30.33R  
GREENWOOD CLOUDY 52 50 93 CALM 30.33R  
GREER CLOUDY 56 51 84 CALM 30.33R  
ROCK HILL SUNNY 54 54 100 CALM 30.33R  
CHESTER SUNNY 54 50 87 N3 30.33R  
LAURENS CLOUDY 52 50 93 N3 30.32R  
 
   
..CENTRAL SOUTH CAROLINA
 
 
 
CITY SKY/WX TMP DP RH WIND PRES REMARKS
 
COLUMBIA APT PTSUNNY 53 51 93 CALM 30.31R  
COLUMBIA OWENS SUNNY 57 52 83 CALM 30.33R  
MCENTIRE ANGB PTSUNNY 54 54 98 CALM 30.32R  
ORANGEBURG MOSUNNY 56 52 86 CALM 30.31R  
SUMTER SHAW SUNNY 57 54 89 CALM 30.29R  
NEWBERRY CLOUDY 54 52 94 CALM 30.36R  
AIKEN FOG 52 52 100 CALM 30.34R VSB<1/4  
BARNWELL N/A 57 54 88 CALM 30.30R  
MANNING FOG 55 52 88 MISG 30.31R VSB<1/4  
CAMDEN FAIR 55 50 82 CALM 30.33R  
LANCASTER SUNNY 50 50 100 CALM 30.33R  
WINNSBORO SUNNY 57 52 82 CALM 30.32R  
 
   
..EASTERN AND COASTAL SOUTH CAROLINA
 
 
 
CITY SKY/WX TMP DP RH WIND PRES REMARKS
 
MYRTLE BEACH SUNNY 62 56 80 N6 30.32R  
N MYRTLE BCH SUNNY 63 57 81 NE3 30.30R  
CONWAY FAIR 57 55 94 CALM 30.32R FOG  
MARION FAIR 55 54 94 CALM 30.31R  
HARTSVILLE FAIR 57 54 88 CALM 30.32R  
FLORENCE SUNNY 59 55 87 N3 30.32R  
DARLINGTON SUNNY 54 51 90 N3 30.33R  
CHARLESTON APT MOSUNNY 63 59 87 NE6 30.29R  
MOUNT PLEASANT FAIR 59 59 100 CALM 30.30R  
WALTERBORO SUNNY 59 55 88 CALM 30.30R  
BEAUFORT SUNNY 65 63 93 MISG 30.28R  
 
   
..EASTERN GEORGIA
 
 
 
CITY SKY/WX TMP DP RH WIND PRES REMARKS
 
AUGUSTA BUSH F MOSUNNY 57 53 86 N3 30.30R  
AUGUSTA DANIEL CLOUDY 62 53 72 N3 30.31R  
THOMSON CLOUDY 50 47 88 CALM 30.36R  
CLAXTON FAIR 59 59 98 CALM 30.26S  
SYLVANIA MOSUNNY 56 56 100 CALM 30.29R FOG  
STATESBORO SUNNY 59 59 100 CALM 30.28R  
SAVANNAH MOSUNNY 67 63 87 NE6 30.27R  
 
   
..SOUTHERN NORTH CAROLINA
 
 
 
CITY SKY/WX TMP DP RH WIND PRES REMARKS
 
CHARLOTTE PTSUNNY 57 52 83 N3 30.33R  
MONROE SUNNY 54 51 90 NE5 30.32R  
WADESBORO SUNNY 49 46 90 CALM 30.32R  
RUTHERFORDTON CLOUDY 51 49 93 CALM 30.34R  
ASHEVILLE CLOUDY 46 44 93 CALM 30.38R  
 

 
 
 
CLICK HERE TO GO TO PREVIOUS BULLETINS.

The Nexlab SC Page
The Nexlab GA Page Main Text Page